• In Belgium
  • List of Countries
  • For 7 days
  • Water Temperature
  • Satellite Maps
  • Weather Map
  • Weather Widgets
  • user-avatar
    Login

    Hourly Weather Beringen

    Today, 18 September, Tuesday

    Time Temperature Precipitation Wind Pressure Humidity
    00:00 +19°C° 0 mm 3 mps 757 mmHg 52%
    01:00 +19°C° 0 mm 4 mps 756 mmHg 53%
    02:00 +19°C° 0 mm 4 mps 756 mmHg 54%
    03:00 +19°C° 0 mm 4 mps 755 mmHg 56%
    04:00 +20°C° 0 mm 4 mps 755 mmHg 57%
    05:00 +20°C° 0 mm 5 mps 755 mmHg 59%
    06:00 +20°C° 0 mm 5 mps 755 mmHg 61%
    07:00 +21°C° 0 mm 5 mps 756 mmHg 59%
    08:00 +23°C° 0 mm 6 mps 756 mmHg 57%
    09:00 +24°C° 0 mm 6 mps 756 mmHg 55%
    10:00 +26°C° 0 mm 6 mps 756 mmHg 53%
    11:00 +27°C° 0 mm 6 mps 756 mmHg 51%
    12:00 +28°C° 0 mm 7 mps 756 mmHg 49%
    13:00 +27°C° 0 mm 6 mps 757 mmHg 50%
    14:00 +27°C° 0 mm 6 mps 757 mmHg 51%
    15:00 +27°C° 0 mm 6 mps 757 mmHg 52%
    16:00 +25°C° 0 mm 5 mps 757 mmHg 59%
    17:00 +22°C° 0 mm 4 mps 757 mmHg 65%
    18:00 +21°C° 0 mm 3 mps 758 mmHg 71%
    19:00 +20°C° 0 mm 2 mps 758 mmHg 75%
    20:00 +19°C° 0 mm 2 mps 759 mmHg 78%
    21:00 +18°C° 0 mm 2 mps 759 mmHg 82%
    22:00 +17°C° 0 mm 2 mps 759 mmHg 84%
    23:00 +17°C° 0 mm 2 mps 759 mmHg 85%

    Tomorrow, 19 September, Wednesday

    Time Temperature Precipitation Wind Pressure Humidity
    00:00 +18°C° 0 mm 1 mps 759 mmHg 87%
    01:00 +16°C° 0 mm 2 mps 759 mmHg 88%
    02:00 +16°C° 0 mm 2 mps 759 mmHg 88%
    03:00 +16°C° 0 mm 2 mps 759 mmHg 89%
    04:00 +16°C° 0 mm 2 mps 759 mmHg 89%
    05:00 +16°C° 0 mm 2 mps 759 mmHg 89%
    06:00 +17°C° 0 mm 2 mps 759 mmHg 89%
    07:00 +19°C° 0 mm 3 mps 759 mmHg 81%
    08:00 +21°C° 0 mm 4 mps 760 mmHg 73%
    09:00 +23°C° 0 mm 5 mps 760 mmHg 65%
    10:00 +24°C° 0 mm 6 mps 760 mmHg 61%
    11:00 +24°C° 0 mm 6 mps 759 mmHg 57%
    12:00 +26°C° 0 mm 6 mps 759 mmHg 52%
    13:00 +26°C° 0 mm 6 mps 759 mmHg 52%
    14:00 +26°C° 0 mm 6 mps 759 mmHg 51%
    15:00 +26°C° 0 mm 6 mps 759 mmHg 51%
    16:00 +25°C° 0 mm 5 mps 759 mmHg 57%
    17:00 +22°C° 0 mm 4 mps 759 mmHg 62%
    18:00 +20°C° 0 mm 3 mps 759 mmHg 68%
    19:00 +20°C° 0 mm 3 mps 760 mmHg 71%
    20:00 +19°C° 0 mm 3 mps 760 mmHg 74%
    21:00 +18°C° 0 mm 3 mps 760 mmHg 78%
    22:00 +18°C° 0 mm 3 mps 760 mmHg 79%
    23:00 +18°C° 0 mm 3 mps 760 mmHg 81%

    Day after tomorrow, 20 September, Thursday

    Time Temperature Precipitation Wind Pressure Humidity
    00:00 +17°C° 0 mm 3 mps 760 mmHg 82%
    01:00 +17°C° 0 mm 3 mps 760 mmHg 84%
    02:00 +17°C° 0 mm 3 mps 760 mmHg 85%
    03:00 +16°C° 0 mm 3 mps 760 mmHg 87%
    04:00 +16°C° 0 mm 3 mps 760 mmHg 87%
    05:00 +16°C° 0 mm 3 mps 760 mmHg 87%
    06:00 +15°C° 0 mm 4 mps 760 mmHg 88%
    07:00 +18°C° 0 mm 4 mps 759 mmHg 80%
    08:00 +20°C° 0 mm 5 mps 759 mmHg 73%
    09:00 +21°C° 0 mm 6 mps 759 mmHg 66%
    10:00 +23°C° 0 mm 6 mps 759 mmHg 62%
    11:00 +24°C° 0 mm 6 mps 758 mmHg 57%
    12:00 +26°C° 0 mm 6 mps 758 mmHg 53%
    13:00 +26°C° 0 mm 6 mps 758 mmHg 53%
    14:00 +26°C° 0 mm 6 mps 757 mmHg 52%
    15:00 +26°C° 0 mm 5 mps 756 mmHg 51%
    16:00 +25°C° 0 mm 5 mps 756 mmHg 56%
    17:00 +23°C° 0 mm 4 mps 755 mmHg 60%
    18:00 +21°C° 0 mm 3 mps 755 mmHg 65%
    19:00 +21°C° 0 mm 4 mps 754 mmHg 63%
    20:00 +21°C° 0 mm 4 mps 754 mmHg 61%
    21:00 +21°C° 0 mm 5 mps 754 mmHg 59%
    22:00 +21°C° 0 mm 5 mps 753 mmHg 56%
    23:00 +22°C° 0 mm 6 mps 752 mmHg 54%

    21 September, Friday

    Time Temperature Precipitation Wind Pressure Humidity
    00:00 +22°C° 0 mm 6 mps 752 mmHg 51%
    01:00 +21°C° 0 mm 6 mps 751 mmHg 55%
    02:00 +21°C° 0 mm 6 mps 751 mmHg 58%
    03:00 +21°C° 0 mm 7 mps 750 mmHg 61%
    04:00 +20°C° 0.7 mm 7 mps 751 mmHg 69%
    05:00 +18°C° 0.7 mm 7 mps 751 mmHg 77%
    06:00 +17°C° 0.7 mm 8 mps 751 mmHg 85%
    07:00 +16°C° 0.6 mm 7 mps 752 mmHg 82%
    08:00 +15°C° 0.6 mm 6 mps 752 mmHg 79%
    09:00 +14°C° 0.6 mm 6 mps 753 mmHg 76%
    10:00 +15°C° 0.1 mm 6 mps 754 mmHg 70%
    11:00 +15°C° 0.1 mm 6 mps 754 mmHg 64%
    12:00 +15°C° 0.1 mm 6 mps 755 mmHg 57%
    13:00 +15°C° 0.1 mm 7 mps 755 mmHg 55%
    14:00 +15°C° 0.1 mm 7 mps 755 mmHg 53%
    15:00 +15°C° 0.1 mm 8 mps 756 mmHg 50%
    16:00 +14°C° 0 mm 7 mps 757 mmHg 52%
    17:00 +13°C° 0 mm 6 mps 757 mmHg 53%
    18:00 +12°C° 0 mm 4 mps 758 mmHg 54%
    19:00 +12°C° 0 mm 5 mps 759 mmHg 56%
    20:00 +12°C° 0 mm 5 mps 760 mmHg 58%
    21:00 +10°C° 0 mm 5 mps 761 mmHg 60%
    22:00 +11°C° 0 mm 4 mps 761 mmHg 63%
    23:00 +11°C° 0 mm 4 mps 762 mmHg 66%

    22 September, Saturday

    Time Temperature Precipitation Wind Pressure Humidity
    00:00 +10°C° 0 mm 4 mps 762 mmHg 69%
    01:00 +10°C° 0 mm 4 mps 763 mmHg 70%
    02:00 +10°C° 0 mm 4 mps 763 mmHg 71%
    03:00 +8°C° 0 mm 4 mps 764 mmHg 72%
    04:00 +8°C° 0 mm 4 mps 764 mmHg 73%
    05:00 +8°C° 0 mm 4 mps 764 mmHg 74%
    06:00 +8°C° 0 mm 4 mps 764 mmHg 75%
    07:00 +10°C° 0 mm 4 mps 765 mmHg 69%
    08:00 +12°C° 0 mm 5 mps 765 mmHg 63%
    09:00 +14°C° 0 mm 5 mps 765 mmHg 57%
    10:00 +15°C° 0.1 mm 5 mps 765 mmHg 55%
    11:00 +16°C° 0.1 mm 5 mps 765 mmHg 54%
    12:00 +17°C° 0.1 mm 6 mps 764 mmHg 52%
    13:00 +17°C° 0.1 mm 5 mps 764 mmHg 52%
    14:00 +17°C° 0.1 mm 5 mps 764 mmHg 53%
    15:00 +17°C° 0.1 mm 5 mps 764 mmHg 54%
    16:00 +17°C° 0 mm 4 mps 764 mmHg 58%
    17:00 +14°C° 0 mm 3 mps 764 mmHg 63%
    18:00 +14°C° 0 mm 2 mps 764 mmHg 68%
    19:00 +14°C° 0 mm 2 mps 764 mmHg 71%
    20:00 +13°C° 0 mm 2 mps 764 mmHg 73%
    21:00 +13°C° 0 mm 2 mps 764 mmHg 76%
    22:00 +13°C° 0.4 mm 2 mps 763 mmHg 79%
    23:00 +13°C° 0.4 mm 2 mps 763 mmHg 82%

    23 September, Sunday

    Time Temperature Precipitation Wind Pressure Humidity
    00:00 +12°C° 0.4 mm 3 mps 762 mmHg 84%
    01:00 +11°C° 0.4 mm 4 mps 761 mmHg 84%
    02:00 +10°C° 0.4 mm 5 mps 760 mmHg 83%
    03:00 +10°C° 0.4 mm 6 mps 759 mmHg 82%
    04:00 +11°C° 0.1 mm 6 mps 758 mmHg 80%
    05:00 +11°C° 0.1 mm 7 mps 757 mmHg 79%
    06:00 +12°C° 0.1 mm 8 mps 756 mmHg 77%
    07:00 +13°C° 0.2 mm 8 mps 755 mmHg 77%
    08:00 +13°C° 0.2 mm 9 mps 754 mmHg 77%
    09:00 +15°C° 0.2 mm 9 mps 753 mmHg 77%
    10:00 +17°C° 0.2 mm 10 mps 752 mmHg 77%
    11:00 +18°C° 0.2 mm 11 mps 750 mmHg 77%
    12:00 +19°C° 0.2 mm 11 mps 749 mmHg 78%
    13:00 +19°C° 0.6 mm 12 mps 748 mmHg 74%
    14:00 +19°C° 0.6 mm 13 mps 747 mmHg 71%
    15:00 +18°C° 0.6 mm 13 mps 747 mmHg 67%
    16:00 +17°C° 0.1 mm 13 mps 746 mmHg 65%
    17:00 +15°C° 0.1 mm 13 mps 746 mmHg 62%
    18:00 +14°C° 0.1 mm 13 mps 746 mmHg 60%
    19:00 +13°C° 0.3 mm 13 mps 746 mmHg 62%
    20:00 +12°C° 0.3 mm 13 mps 747 mmHg 64%
    21:00 +10°C° 0.3 mm 13 mps 747 mmHg 66%
    22:00 +10°C° 0.5 mm 13 mps 748 mmHg 69%
    23:00 +10°C° 0.5 mm 13 mps 749 mmHg 72%
    Show more